Location: Caracas
(10.5033°N, 66.8422°W)
Time: 19:49:13
(UTC-04:00)

Vanguard 3 - All Passes

Search period start: 19 February 2018 00:00
Search period end: 01 March 2018 00:00
Orbit: 508 x 3264 km, 33.3° (Epoch: 19 February)

Date Brightness Start Highest point End Pass type
(mag) Time Alt. Az. Time Alt. Az. Time Alt. Az.
19 Feb - 01:16:45 10° W 01:25:20 33° SSW 01:38:45 10° SSE visible
19 Feb - 03:38:06 10° SW 03:43:47 12° SSW 03:50:09 10° S visible
19 Feb - 10:39:29 10° SSW 10:50:17 26° SSE 10:57:28 10° ESE daylight
19 Feb - 12:54:11 10° SW 13:04:44 81° SSE 13:10:30 10° ENE daylight
19 Feb - 15:12:32 10° WNW 15:16:28 17° NW 15:19:32 10° N daylight
19 Feb - 21:51:33 10° NW 21:56:45 45° NE 22:05:34 10° ESE night (unlit)
20 Feb - 00:02:23 10° WNW 00:09:42 48° SSW 00:22:34 10° SE night (unlit)
20 Feb - 02:18:33 10° WSW 02:26:10 18° SSW 02:36:06 10° SSE visible
20 Feb - 09:24:15 10° SSW 09:33:55 18° SSE 09:41:17 10° ESE daylight
20 Feb - 11:37:45 10° SW 11:50:09 49° SSE 11:57:09 10° ENE daylight
20 Feb - 13:54:43 10° WSW 14:02:54 41° NW 14:07:50 10° NE daylight
20 Feb - 20:39:43 10° NNW 20:43:08 19° NE 20:47:44 10° E visible
20 Feb - 22:48:57 10° WNW 22:54:59 78° SSW 23:06:05 10° SE night (unlit)
21 Feb - 01:02:11 10° WSW 01:09:39 26° SSW 01:20:50 10° SSE visible
21 Feb - 08:10:07 10° S 08:16:27 12° SSE 08:22:03 10° SE daylight
21 Feb - 10:21:37 10° SSW 10:34:39 33° SSE 10:42:53 10° E daylight
21 Feb - 12:37:25 10° WSW 12:49:02 83° NW 12:55:18 10° NE daylight
21 Feb - 14:57:10 10° WNW 15:00:58 15° NNW 15:03:58 10° N daylight
21 Feb - 21:36:13 10° NW 21:41:05 54° NE 21:49:21 10° ESE night (unlit)
21 Feb - 23:47:30 10° W 23:54:05 37° SSW 00:05:09 10° SSE night (unlit)
22 Feb - 02:05:18 10° SW 02:10:40 13° SSW 02:17:08 10° S visible
22 Feb - 09:05:55 10° SSW 09:18:16 23° SSE 09:27:13 10° ESE daylight
22 Feb - 11:20:27 10° SW 11:34:24 61° SSE 11:42:06 10° ENE daylight
22 Feb - 13:38:36 10° W 13:47:13 36° NW 13:52:27 10° NNE daylight
22 Feb - 20:24:11 10° NNW 20:27:37 22° NE 20:32:14 10° E visible
22 Feb - 22:33:51 10° WNW 22:39:23 61° SSW 22:49:13 10° SE night (unlit)
23 Feb - 00:47:59 10° WSW 00:54:08 19° SSW 01:02:42 10° SSE visible
23 Feb - 07:51:02 10° S 08:00:52 16° SSE 08:09:09 10° SE daylight
23 Feb - 10:03:54 10° SSW 10:18:52 41° SSE 10:28:02 10° E daylight
23 Feb - 12:20:40 10° WSW 12:33:13 70° NW 12:40:01 10° NE daylight
23 Feb - 14:41:45 10° WNW 14:45:29 14° NNW 14:48:27 10° N daylight
23 Feb - 21:20:56 10° NW 21:25:30 68° NE 21:33:08 10° ESE visible
23 Feb - 23:32:50 10° W 23:38:36 28° SSW 23:47:38 10° SSE night (unlit)
24 Feb - 06:39:16 10° S 06:42:23 10° SSE 06:45:24 10° SSE daylight
24 Feb - 08:47:53 10° SSW 09:02:25 29° SSE 09:12:43 10° E daylight
24 Feb - 11:03:11 10° SW 11:18:30 74° SSE 11:26:54 10° ENE daylight
24 Feb - 13:22:28 10° W 13:31:29 32° NW 13:37:04 10° NNE daylight
24 Feb - 20:08:40 10° NNW 20:12:07 26° NE 20:16:45 10° E visible
24 Feb - 22:18:53 10° WNW 22:23:54 45° SSW 22:32:21 10° SE night (unlit)
25 Feb - 00:34:32 10° SW 00:38:46 14° SSW 00:43:59 10° S night (unlit)
25 Feb - 07:32:42 10° SSW 07:45:05 20° SSE 07:55:18 10° ESE daylight
25 Feb - 09:46:16 10° SW 10:02:53 50° SSE 10:12:58 10° ENE daylight
25 Feb - 12:03:56 10° WSW 12:17:18 61° NW 12:24:39 10° NE daylight
25 Feb - 14:26:17 10° WNW 14:30:00 14° NNW 14:33:01 10° N daylight
25 Feb - 21:05:43 10° WNW 21:09:59 90° NE 21:16:55 10° SE visible
25 Feb - 23:18:29 10° WSW 23:23:13 20° SSW 23:29:56 10° SSE night (unlit)
26 Feb - 06:19:16 10° S 06:26:50 13° SSE 06:33:59 10° SE visible
26 Feb - 08:30:03 10° SSW 08:46:23 35° SSE 08:57:52 10° E daylight
26 Feb - 10:45:59 10° SW 11:02:27 86° SSE 11:11:35 10° ENE daylight
26 Feb - 13:06:20 10° W 13:15:44 29° NW 13:21:39 10° NNE daylight
26 Feb - 19:53:09 10° NNW 19:56:38 33° NE 20:01:14 10° E visible
26 Feb - 22:04:04 10° W 22:08:31 31° SSW 22:15:24 10° SSE night (unlit)
27 Feb - 07:14:45 10° SSW 07:29:05 24° SSE 07:40:54 10° ESE daylight
27 Feb - 09:28:46 10° SW 09:46:43 60° SSE 09:57:43 10° ENE daylight
27 Feb - 11:47:14 10° WSW 12:01:17 53° NW 12:09:14 10° NE daylight
27 Feb - 14:10:39 10° NW 14:14:33 14° NNW 14:17:42 10° N daylight
27 Feb - 18:41:34 10° N 18:43:07 12° NNE 18:44:43 10° NE daylight
27 Feb - 20:50:34 10° WNW 20:54:33 64° SSW 21:00:40 10° SE visible
27 Feb - 23:04:52 10° SW 23:07:56 13° SSW 23:11:43 10° S night (unlit)
28 Feb - 06:00:55 10° S 06:11:03 16° SSE 06:20:39 10° ESE visible
28 Feb - 08:12:25 10° SSW 08:30:08 42° SSE 08:42:45 10° E daylight
28 Feb - 10:28:50 10° WSW 10:46:15 84° NW 10:56:09 10° NE daylight
28 Feb - 12:50:12 10° W 12:59:58 27° NNW 13:06:14 10° NNE daylight
28 Feb - 19:37:39 10° NW 19:41:12 45° NE 19:45:41 10° ESE visible
28 Feb - 21:49:31 10° WSW 21:53:12 21° SSW 21:58:20 10° SSE visible
